Weather in Petrun'

Russia / Komi Republic     66°28′19″N   60°44′33″E
temp.,
°C
wind,
m/s
gust,
m/s
humid.,
%
clouds,
%
prec.,
mm/h
press.,
hPa
HPBL,
m
8 august, mon
mon800:00+18ssw612690 0.0 1013169
03:00+17sw611710 0.0 1013152
06:00+21sw811610 0.0 1013367
09:00+26sw710465 0.0 10121148
12:00+27w91145100 0.0 10122344
15:00+17nw91073100 2.3 1016686
18:00+16w357324 0.0 1018222
21:00+14sw4577100 0.0 101877
9 august, tue
tue900:00+13wsw467928 0.0 101864
03:00+12w477812 0.0 101997
06:00+16wnw68625 0.0 1020590
09:00+18w8105124 0.0 10201811
12:00+17wnw81050100 0.0 10211598
15:00+17nnw984828 0.0 10221268
18:00+14nnw68545 0.0 1023585
21:00+9wnw44685 0.0 102431
10 august, wed
wed1000:00+9sw4467100 0.0 102440
03:00+11wsw4660100 0.0 1024171
06:00+12w5759100 0.0 1025379
09:00+16wnw45506 0.0 10241386
12:00+17wnw4444100 0.0 10231972
15:00+17ene1244100 0.0 10231280
18:00+15se345624 0.0 102258
21:00+11se5665100 0.0 102159
11 august, thu
thu1100:00+11se4564100 0.0 102056
03:00+11se4562100 0.0 101877
06:00+15sse56555 0.0 1016338
09:00+18sse555021 0.0 10141128
12:00+19se33467 0.0 10131402
15:00+18sse4552100 0.0 1011665
18:00+16s466283 0.0 1011180
21:00+11sse458115 0.0 101057
12 august, fri
fri1200:00+9sse5685100 0.0 100881
03:00+11s488791 0.0 1006188
06:00+12ssw5882100 0.0 1005258
09:00+13sw5781100 0.0 1005402
12:00+12wsw4697100 1.8 1004317
15:00+13wnw3697100 4.4 1004270
18:00+12n5987100 2.0 1005371
21:00+11nw4783100 2.0 1006149